Lapse_Rate
5.4 5.2 5.1 4.9 4.5 4.6 4.5 4.3 4.7 4.5 4.6 4.7 4.9 5.0 5.1 4.9 5.3 5.1 3.2 5.0 5.7 5.8 5.2 3.7 4.2 5.1 6.2 6.0 6.1 5.8 6.5 6.5 6.5 6.5 6.5 5.3 6.4 5.1 5.2 5.1 4.4 4.0 4.0 3.4 4.8
5.5 5.2 4.9 4.4 4.2 4.0 4.0 4.2 4.6 4.7 4.5 4.8 4.9 5.2 5.5 5.3 5.0 5.0 6.2 6.2 6.0 6.1 4.1 3.8 4.8 4.9 4.7 6.1 4.8 6.3 6.5 6.5 6.5 6.5 6.5 6.2 6.1 5.1 5.8 6.0 6.2 4.9 5.2 5.6 5.6
5.8 5.2 4.9 4.3 4.0 3.6 3.6 3.9 4.2 4.6 4.7 4.7 4.9 5.1 5.5 5.3 5.6 5.1 6.9 6.5 6.4 6.5 5.1 5.1 5.1 5.9 6.4 6.1 5.8 6.2 6.5 6.5 6.4 5.9 5.9 6.0 6.1 6.0 5.8 6.5 5.6 5.6 5.6 5.7 5.5
5.4 4.8 4.4 3.8 3.5 3.4 3.5 3.8 4.1 4.4 4.9 4.9 4.9 5.2 5.4 5.0 6.5 5.5 7.0 6.6 6.9 6.6 5.7 6.3 6.2 6.4 6.5 6.5 5.9 6.5 6.2 6.2 6.4 5.1 5.9 6.5 5.2 6.2 5.8 6.0 4.0 2.6 4.1 5.2 5.3
5.3 4.7 3.9 3.4 3.2 3.3 3.5 3.7 4.0 4.2 4.5 4.7 5.1 5.3 4.6 5.9 5.0 6.6 7.0 6.4 6.1 5.2 5.7 5.7 6.4 6.3 6.5 6.4 6.2 6.5 6.5 5.8 5.9 5.6 5.8 5.8 6.3 6.3 5.8 3.7 2.9 4.1 5.5 5.2 5.0
5.0 4.3 3.5 3.0 2.9 2.9 3.3 3.6 4.0 4.2 4.5 4.8 5.1 5.6 4.6 6.5 6.0 6.7 5.8 6.0 5.6 5.4 5.4 4.8 5.2 4.9 6.4 6.3 6.5 6.2 6.2 6.2 6.2 6.2 6.1 6.5 6.4 6.2 5.5 4.5 5.3 5.3 5.1 5.2 5.2
5.2 4.2 3.3 2.7 2.7 2.8 3.0 3.4 3.8 4.0 4.1 4.8 5.5 5.8 5.6 5.6 5.9 5.9 5.6 5.5 7.0 6.7 5.8 5.7 4.6 5.7 5.3 6.5 6.4 5.5 6.5 6.5 6.4 6.3 6.5 6.3 6.5 6.5 5.0 4.6 5.6 5.6 5.7 5.4 5.4
5.3 4.3 3.4 2.9 2.7 2.6 2.7 3.2 3.8 4.0 4.6 5.2 5.9 5.8 5.1 6.4 6.1 6.5 5.4 5.7 5.9 7.2 7.0 6.4 5.7 6.3 6.1 5.9 6.4 6.5 6.5 6.5 6.5 6.5 6.4 6.5 6.5 6.5 4.7 4.9 5.6 5.2 5.9 5.6 5.3
5.3 4.0 3.3 3.0 2.9 2.6 3.1 3.7 4.3 4.4 5.3 5.9 5.0 5.8 6.1 6.5 6.8 6.8 6.1 5.8 5.1 6.6 7.1 7.6 6.6 5.8 6.3 6.5 6.5 6.5 6.5 6.5 6.5 6.3 6.5 6.5 6.5 6.5 5.0 5.0 5.4 5.3 5.0 5.0 4.9
5.3 4.2 3.1 2.7 2.7 2.8 3.1 4.3 4.7 4.2 5.2 6.2 6.9 6.3 6.5 6.1 6.4 6.5 6.5 6.2 5.7 5.9 6.7 6.2 4.7 6.5 6.5 6.5 6.5 6.5 6.5 6.5 6.5 6.5 6.5 6.5 6.5 6.5 5.4 5.2 4.8 4.1 4.0 4.3 4.6
5.2 4.3 3.2 2.8 2.9 3.1 2.2 2.6 3.8 4.7 3.9 5.9 6.0 6.7 6.0 5.9 6.6 6.6 5.9 5.6 6.4 6.5 6.5 6.3 6.5 6.5 6.5 6.5 6.5 6.5 6.5 6.5 6.5 6.5 6.5 6.5 6.5 6.5 5.6 4.9 4.6 3.3 3.0 3.5 4.1
4.8 4.0 3.5 2.8 2.9 3.6 2.0 1.5 2.9 3.7 5.8 6.2 6.3 6.8 6.6 6.2 6.2 5.7 4.5 6.0 6.3 6.5 6.5 6.5 6.5 6.5 6.5 6.5 6.5 6.5 6.5 6.5 6.5 6.5 6.5 6.5 6.5 6.5 6.5 6.1 5.1 3.6 2.9 3.4 3.7
4.8 4.5 4.0 3.3 3.5 1.8 1.7 3.1 4.2 4.0 5.7 6.4 6.3 6.6 6.3 6.0 6.6 5.5 4.7 5.3 6.5 6.5 6.5 6.5 6.5 6.5 6.5 6.5 6.5 6.5 6.5 6.5 6.5 6.5 6.5 6.5 6.5 6.5 6.5 5.4 4.4 3.5 2.3 2.8 3.0
4.5 3.8 3.5 3.3 3.6 3.6 3.1 4.4 4.7 4.7 6.5 6.5 6.4 6.3 5.9 6.6 6.5 6.5 5.5 6.1 6.5 6.5 6.5 6.5 6.5 6.5 6.5 6.5 6.5 6.5 6.5 6.5 6.5 6.5 6.5 6.5 6.5 6.5 6.5 6.5 6.5 5.6 2.8 2.4 2.1
3.1 3.2 3.1 3.2 1.3 3.1 3.7 4.2 4.4 4.1 6.5 6.5 6.5 5.7 6.4 6.4 6.4 6.1 5.8 6.5 6.5 6.5 6.5 6.5 6.5 6.5 6.5 6.5 6.5 6.5 6.5 6.5 6.5 6.5 6.5 6.5 6.5 6.5 6.5 6.5 6.5 6.6 4.7 1.8 1.6
2.8 2.8 2.8 2.3 1.7 3.2 3.8 3.6 3.7 6.5 6.5 6.5 6.4 6.5 6.5 6.4 6.5 5.7 6.2 6.4 6.6 6.5 6.5 6.5 6.6 6.5 6.5 6.5 6.5 6.5 6.5 6.5 6.5 6.5 6.5 6.5 6.5 6.5 6.5 6.5 6.5 6.2 4.6 3.4 2.1
2.1 3.0 2.0 2.5 3.4 2.8 2.5 3.2 6.5 6.5 6.5 6.5 6.5 6.5 6.5 6.5 6.5 6.5 6.5 6.5 6.5 6.5 6.5 6.5 6.5 6.5 6.5 6.5 6.5 6.5 6.5 6.5 6.5 6.5 6.5 6.5 6.5 6.5 6.5 6.5 6.5 6.5 5.4 4.0 2.5
2.2 3.0 2.3 3.2 2.5 2.1 2.0 6.1 6.5 6.5 6.5 6.5 6.5 6.5 6.5 6.5 6.5 6.5 6.5 6.5 6.5 6.5 6.5 6.5 6.5 6.5 6.5 6.5 6.5 6.5 6.5 6.5 6.5 6.5 6.5 6.5 6.5 6.5 6.5 6.1 5.9 6.1 4.4 3.2 2.1
1.9 -0.1 1.2 1.1 2.0 0.1 3.3 6.5 6.5 6.5 6.5 6.5 6.5 6.5 6.5 6.5 6.5 6.5 6.5 6.5 6.5 6.5 6.5 6.5 6.5 6.5 6.5 6.4 6.5 6.5 6.5 6.5 6.5 6.5 6.5 6.5 6.5 6.5 6.5 6.5 6.3 5.7 4.6 2.8 0.9
-0.5 0.8 2.7 1.7 1.2 0.0 5.5 6.5 6.5 6.5 6.5 6.5 6.5 6.5 6.5 6.5 6.5 6.5 6.5 6.5 6.5 6.5 6.4 6.5 6.5 6.5 6.5 6.1 5.9 6.5 6.5 6.5 6.5 6.5 6.5 6.5 6.5 6.5 6.5 6.5 6.5 6.5 4.9 2.9 1.9
0.6 2.8 2.7 1.2 -0.5 1.4 6.5 6.5 6.5 6.5 6.1 6.5 6.5 6.5 6.5 6.5 6.5 6.5 6.5 6.5 6.5 6.5 6.5 6.5 6.5 6.5 6.5 6.5 6.5 6.5 6.5 6.5 6.5 6.5 6.5 6.5 6.5 6.5 6.5 6.5 6.5 6.5 4.7 3.2 2.6
0.7 6.6 3.6 0.3 4.2 4.5 6.5 6.5 6.8 6.4 6.5 6.5 6.5 6.5 6.5 6.5 6.5 6.5 6.5 6.5 6.3 6.4 6.5 6.5 6.5 6.5 6.5 6.5 6.5 6.5 6.5 6.5 6.5 6.5 6.5 6.5 6.5 6.5 6.5 6.5 5.9 5.0 4.2 1.4 1.1
2.2 2.5 3.2 2.8 6.5 6.5 6.1 6.5 6.4 6.5 6.5 6.5 6.5 6.5 6.5 6.5 6.5 6.5 6.5 6.5 6.2 6.5 6.5 6.5 6.5 6.5 6.5 6.5 6.5 6.5 6.5 6.5 6.5 6.5 6.5 6.5 6.5 6.5 6.5 6.6 3.9 2.9 1.4 1.4 1.5
2.5 6.5 1.9 1.5 2.8 6.4 6.5 6.5 6.5 5.9 6.5 6.4 6.5 6.4 6.5 6.5 6.5 6.5 6.5 6.5 6.7 6.6 7.1 6.5 6.5 6.5 6.5 6.5 6.5 6.5 6.5 6.5 6.5 6.5 6.5 6.5 6.5 6.5 6.5 6.5 5.0 3.7 3.3 2.0 2.4
2.1 5.7 5.5 6.5 5.9 6.2 6.4 6.5 6.5 6.5 6.0 5.6 6.5 6.5 6.5 6.5 6.5 6.5 6.5 6.5 6.4 6.7 6.6 6.5 6.5 6.5 6.5 6.5 6.5 6.5 6.5 6.5 6.5 6.5 6.5 6.5 6.5 6.5 6.5 6.5 4.4 2.4 3.2 4.7 4.5
4.0 4.8 3.8 4.5 4.7 6.1 6.5 6.5 6.5 6.5 6.5 6.5 6.5 6.5 6.5 6.5 6.5 6.5 6.5 6.5 6.5 6.5 6.5 6.5 6.5 6.5 6.5 6.5 6.5 6.5 6.5 6.5 6.5 6.5 6.5 6.5 6.5 6.5 4.8 -0.5 1.8 3.8 4.8 5.6 5.3
4.3 4.2 6.2 5.8 5.8 6.5 6.5 6.5 6.5 6.3 6.4 6.8 6.4 6.5 6.5 6.5 6.3 6.5 6.6 6.5 6.4 6.5 6.5 6.5 6.5 6.5 6.5 6.5 6.5 6.5 6.5 6.5 6.5 6.5 6.5 6.5 6.5 6.5 6.5 6.4 4.2 4.1 4.2 5.0 5.1
Wind_Speed
23 22 21 20 19 18 16 16 15 13 13 12 11 12 13 15 15 2 5 6 8 18 17 10 3 4 1 2 1 3 2 3 4 5 5 5 4 3 2 7 5 4 4 8 16
23 23 22 22 21 20 17 15 14 13 12 12 11 11 12 13 2 6 8 13 14 14 5 7 5 7 2 1 1 3 4 5 2 1 4 5 4 6 5 5 4 8 10 11 11
25 24 24 23 22 20 18 16 14 13 12 12 12 12 12 10 1 2 14 14 15 12 3 3 5 2 2 3 3 3 4 4 3 4 2 7 3 2 10 4 7 12 15 11 8
26 26 25 23 21 20 18 17 15 13 12 11 12 12 13 1 1 2 14 14 15 16 6 4 3 1 2 4 2 3 5 4 2 5 3 4 6 4 4 2 7 19 16 9 11
26 27 25 22 20 19 18 16 14 13 12 10 10 10 5 1 1 5 13 12 10 8 6 5 2 2 2 2 3 2 3 5 3 6 5 3 2 3 3 5 16 17 15 12 9
26 27 25 22 21 19 18 16 15 13 11 9 9 9 0 0 4 6 10 5 6 6 6 6 3 5 1 4 2 2 5 5 4 4 3 1 2 1 5 7 14 15 11 9 11
27 27 25 22 21 18 19 15 12 11 8 7 7 4 3 3 4 6 7 3 1 3 4 4 5 4 4 2 3 5 3 2 3 4 1 1 5 8 6 11 13 11 10 9 9
28 28 26 22 22 19 17 13 8 7 6 6 6 2 1 2 3 4 6 5 7 1 1 4 5 1 3 1 3 1 3 1 1 6 0 4 7 4 10 13 12 10 9 9 8
29 29 27 23 23 20 20 11 8 5 7 6 3 2 2 2 1 4 1 1 6 3 3 2 2 2 3 4 4 2 3 5 2 7 3 4 4 3 7 8 9 9 8 10 8
30 30 28 23 23 20 22 11 4 6 4 5 3 3 2 3 4 5 3 3 3 3 1 1 3 3 4 4 4 3 3 3 3 2 3 4 8 3 6 7 9 9 8 9 10
31 30 29 23 22 20 12 3 4 3 7 2 2 1 2 6 2 2 3 3 2 1 2 1 5 2 2 2 4 4 2 2 2 2 2 7 9 9 10 8 9 9 10 10 11
31 30 30 22 20 18 5 4 2 1 3 2 2 2 2 2 2 6 9 2 2 1 3 6 3 0 2 1 1 2 1 3 2 2 1 4 10 11 9 12 15 15 11 13 9
30 30 31 23 19 4 5 2 4 5 1 2 1 1 1 2 2 5 5 3 3 4 5 4 3 1 1 3 3 2 1 2 1 6 4 4 8 8 7 10 10 9 10 10 13
29 29 29 26 3 2 3 3 4 2 3 2 2 2 1 1 1 0 3 1 3 2 3 4 1 1 0 3 1 2 3 3 3 3 4 3 6 6 4 3 9 11 11 10 10
29 30 22 11 3 3 3 5 5 2 3 1 2 2 0 1 2 2 1 2 2 2 4 0 1 1 1 2 2 2 1 2 1 2 4 3 1 7 2 4 4 3 10 8 9
28 27 13 4 2 1 4 4 2 3 3 1 1 1 1 2 2 4 1 3 1 1 4 2 2 3 1 2 2 1 1 1 2 1 1 5 5 5 2 4 2 4 5 9 8
30 19 2 1 1 2 2 3 3 4 5 6 3 4 3 3 3 2 1 4 2 4 2 2 1 1 3 2 1 5 3 2 4 2 5 4 1 8 5 3 5 11 9 8 7
28 7 2 1 1 3 2 4 4 4 4 4 5 8 3 3 3 3 3 1 2 3 2 2 5 2 5 2 4 2 4 2 4 2 3 3 5 4 3 5 5 6 8 7 6
15 2 1 2 4 3 4 5 1 2 4 7 9 3 2 2 2 3 4 3 5 3 4 2 3 1 3 3 2 3 0 2 1 1 2 3 6 2 3 5 5 7 6 4 3
2 3 3 5 5 3 5 3 2 3 4 4 2 4 4 6 6 6 2 3 4 2 3 3 3 2 2 3 4 4 2 3 3 1 4 5 5 3 2 3 4 5 7 6 3
3 3 3 6 3 5 4 2 2 0 4 4 4 5 4 4 5 4 4 3 3 3 2 4 3 3 2 3 6 2 2 2 0 2 3 1 5 3 3 8 10 5 5 6 6
2 4 4 0 5 3 2 3 2 3 2 2 1 3 3 5 5 4 4 5 4 4 1 2 4 3 6 3 4 3 4 4 2 5 0 2 6 2 3 4 6 2 3 3 4
2 2 4 6 4 4 6 5 3 6 5 5 4 1 4 4 3 8 3 3 5 3 0 1 1 3 6 3 0 2 3 3 3 2 5 3 5 4 4 4 4 4 2 4 5
3 4 4 5 1 3 4 4 6 4 2 4 6 3 6 3 5 4 7 1 6 4 12 2 3 8 7 4 3 3 3 3 3 3 3 9 7 5 4 3 3 3 7 7 7
4 2 1 4 4 6 1 5 6 6 6 6 5 7 6 4 10 8 4 8 4 5 3 5 6 7 11 8 10 13 12 9 10 10 10 6 10 7 8 5 6 5 3 4 4
3 3 5 4 4 7 9 7 8 7 3 3 11 12 6 5 3 12 11 9 6 4 4 2 2 2 2 7 10 12 10 13 11 13 12 16 19 11 9 1 4 5 3 5 4
3 3 1 5 5 4 3 5 9 8 3 13 9 6 6 7 12 19 16 17 13 12 4 4 2 2 3 3 5 1 6 7 4 4 3 3 8 8 3 3 2 5 3 4 5
Wind_Direction
357 354 351 348 345 339 337 334 335 331 327 331 333 337 340 340 326 8 41 308 323 326 331 303 280 271 254 237 49 21 71 204 230 232 157 180 136 48 76 105 61 17 102 145 145
354 352 348 344 340 335 331 329 327 324 321 318 325 332 336 343 312 57 338 337 332 335 345 350 358 334 341 178 342 127 154 219 348 85 182 164 119 134 123 130 72 86 99 121 141
353 350 346 342 339 334 330 325 325 319 317 316 315 324 330 340 295 10 338 341 336 328 260 286 280 244 192 141 208 192 202 147 357 348 44 140 106 110 127 226 180 165 153 153 141
353 351 347 343 339 335 331 326 322 317 313 313 314 316 323 219 61 328 348 342 340 334 313 287 282 232 210 183 111 196 46 88 27 358 19 106 150 168 185 239 177 151 151 144 146
352 350 348 344 341 336 331 324 319 317 312 311 311 314 348 121 53 306 347 341 340 346 20 346 354 315 293 135 117 135 127 67 95 58 53 12 128 220 126 58 121 135 147 148 146
354 349 347 342 340 337 333 323 319 314 303 301 306 316 217 264 259 322 337 341 350 13 14 19 1 300 325 39 78 70 85 121 111 72 38 53 153 216 158 125 124 140 148 151 146
352 350 346 341 338 335 337 330 322 327 307 289 294 298 54 181 288 325 347 309 312 32 359 349 337 26 3 63 1 122 68 20 161 158 120 332 258 224 167 148 142 148 155 151 155
352 349 345 340 337 332 331 326 316 334 327 296 300 318 147 222 291 340 342 349 359 293 8 302 343 73 56 104 53 117 98 23 133 140 230 118 257 254 157 153 162 163 166 163 158
351 348 344 337 336 331 331 316 301 316 302 289 337 177 4 157 351 303 344 325 296 271 222 278 358 93 59 96 26 306 222 202 204 190 125 193 276 359 148 159 169 178 172 169 163
349 348 345 336 334 329 326 296 273 345 269 268 277 49 17 340 309 316 281 282 265 321 155 9 57 57 23 69 212 188 236 293 184 224 158 210 254 251 186 179 192 188 183 178 179
347 345 344 336 334 331 339 17 32 15 44 91 302 308 17 311 296 317 338 305 224 230 90 235 67 57 249 33 175 148 147 231 156 350 260 237 257 227 218 205 203 204 191 188 183
344 343 341 335 333 335 17 56 16 296 109 208 234 236 197 43 318 345 360 58 23 35 27 28 118 169 319 24 38 46 48 300 113 183 167 290 266 255 210 216 202 196 196 188 177
344 342 341 335 327 34 82 72 299 335 119 170 187 279 247 20 44 319 17 308 43 50 29 141 152 214 91 63 30 76 133 356 268 313 234 325 275 238 231 203 193 207 190 178 176
343 342 340 333 7 330 39 336 314 4 76 198 176 235 176 190 213 319 1 47 36 69 67 113 207 137 204 93 350 228 9 18 3 44 240 99 287 297 245 214 200 193 191 177 161
338 341 341 344 281 45 309 331 304 33 25 163 176 113 238 242 151 205 241 38 83 14 73 269 138 48 94 88 330 139 45 30 84 40 35 290 259 267 109 271 258 235 184 163 149
335 339 340 46 71 268 334 345 42 53 268 19 117 305 14 214 221 139 118 49 69 125 54 103 37 60 128 82 50 141 126 156 54 96 330 241 206 273 195 220 194 167 167 150 147
333 336 311 295 270 305 25 64 26 119 356 351 331 349 347 260 170 149 144 5 122 66 268 99 64 53 30 140 5 44 64 332 347 12 228 318 95 251 290 288 219 183 164 141 135
334 326 236 192 190 127 82 61 60 19 0 0 333 309 201 26 248 216 155 271 228 104 86 115 324 98 315 152 171 176 147 208 252 235 287 32 235 262 277 321 80 123 136 130 139
345 338 344 263 162 91 81 53 222 340 302 340 322 322 5 7 296 342 202 194 193 147 153 83 281 146 55 44 65 265 93 250 271 76 45 257 288 295 5 35 65 93 116 146 172
43 349 293 140 136 68 68 91 60 25 332 356 326 37 336 330 343 19 294 204 157 98 142 232 336 225 133 76 347 143 185 43 341 283 282 293 286 320 292 202 170 168 183 198 205
46 39 286 143 91 44 79 17 18 18 33 9 329 313 329 347 333 297 254 303 104 145 81 144 102 287 98 191 179 23 345 23 120 186 206 282 279 215 266 206 201 203 193 192 195
24 41 308 124 41 29 36 331 336 338 346 342 336 279 288 357 306 285 329 28 66 143 146 183 154 239 235 252 187 178 184 162 133 282 80 137 278 275 319 360 162 199 227 235 201
17 270 330 57 59 354 329 346 355 3 6 7 301 332 351 314 320 321 358 4 48 10 163 126 263 346 332 29 113 224 221 134 110 77 211 154 264 333 348 44 71 127 255 248 245
49 21 338 34 76 45 345 358 347 15 12 330 266 312 359 294 268 286 283 22 359 333 318 323 246 214 232 239 138 250 214 217 169 164 218 226 260 298 324 84 44 287 250 246 257
26 25 116 327 337 346 44 18 10 0 355 319 337 23 338 296 302 275 329 319 278 275 268 171 224 239 259 298 284 275 272 220 209 231 236 264 245 243 261 257 271 245 243 261 275
59 15 357 296 319 7 6 12 15 348 289 333 352 341 336 324 348 305 300 287 277 25 20 328 305 342 275 269 270 279 325 292 232 242 258 271 281 276 282 280 329 305 302 304 306
334 329 189 295 355 8 27 352 345 349 355 34 15 3 338 320 301 288 281 275 263 282 305 271 248 196 247 345 350 45 338 26 318 71 240 258 275 253 333 350 305 282 286 315 310